Troy, MI

5:34 AM EDT on September 23, 2017 (GMT -0400)
Troy

Weather History for KVLL - November, 2012

Change the Weather History Date:

Tuesday, November 27, 2012

  Actual Average (KDET) Record (KDET)
Temperature  
Mean Temperature 32 °F -  
Max Temperature 38 °F 44 °F 67 °F (1990)
Min Temperature 27 °F 34 °F 13 °F (1950)
Degree Days  
Heating Degree Days 32    
Moisture  
Dew Point 18 °F    
Average Humidity 55    
Maximum Humidity 73    
Minimum Humidity 38    
Precipitation  
Precipitation 0.00 in - - ()
Sea Level Pressure  
Sea Level Pressure 30.31 in    
Wind  
Wind Speed 4 mph (West)    
Max Wind Speed 8 mph    
Max Gust Speed -    
Visibility 10 miles    
Events      
Averages and records for this station are not official NWS values.
T = Trace of Precipitation, MM = Missing Value Source: NWS Daily Summary

Daily Weather History Graph

Daily Weather History Graph

Search for Another Location

Airport or City:

Trip Planner

Search our weather history database for the weather conditions in past years. The results will help you decide how hot, cold, wet, or windy it might be!

Date:

Astronomy

Nov. 27, 2012 Rise Set
Actual Time 7:38 AM EST 5:01 PM EST
Civil Twilight 7:07 AM EST 5:33 PM EST
Nautical Twilight 6:32 AM EST 6:07 PM EST
Astronomical Twilight 5:59 AM EST 6:41 PM EST
Moon 4:32 PM EST (11/27) 6:42 AM EST (11/27)
Length of Visible Light 10h 25m
Length of Day
9h 22m
Waxing Gibbous, 99% of the Moon is Illuminated
Nov 27
Waxing Gibbous
Nov 28
Full
Dec 6
Last Quarter
Dec 13
New
Dec 20
First Quarter

Hourly Weather History & Observations

Time (EST) Temp. Windchill Dew Point Humidity Pressure Visibility Wind Dir Wind Speed Gust Speed Precip Events Conditions
12:15 AM 34.2 °F 30.0 °F 19.2 °F 54% 30.30 in 10.0 mi NW 4.6 mph - N/A   Overcast
12:35 AM 34.2 °F 29.0 °F 18.1 °F 52% 30.30 in 10.0 mi NNW 5.8 mph - N/A   Overcast
12:54 AM 34.0 °F 29.8 °F 18.1 °F 52% 30.30 in 10.0 mi WNW 4.6 mph - N/A   Overcast
1:15 AM 33.8 °F 29.6 °F 18.5 °F 54% 30.29 in 10.0 mi NW 4.6 mph - N/A   Overcast
1:34 AM 33.4 °F 28.1 °F 19.0 °F 56% 30.29 in 10.0 mi WNW 5.8 mph - N/A   Overcast
1:55 AM 33.3 °F 27.9 °F 19.2 °F 56% 30.30 in 10.0 mi NW 5.8 mph - N/A   Overcast
2:15 AM 32.9 °F 25.9 °F 19.4 °F 58% 30.30 in 10.0 mi WNW 8.1 mph - N/A   Mostly Cloudy
2:34 AM 32.2 °F 25.8 °F 19.4 °F 59% 30.31 in 10.0 mi NW 6.9 mph - N/A   Scattered Clouds
2:55 AM 32.0 °F 28.7 °F 19.4 °F 60% 30.31 in 10.0 mi WNW 3.5 mph - N/A   Clear
3:15 AM 31.5 °F 26.8 °F 19.4 °F 61% 30.31 in 10.0 mi WNW 4.6 mph - N/A   Clear
3:34 AM 31.1 °F 26.4 °F 19.4 °F 62% 30.31 in 10.0 mi NW 4.6 mph - N/A   Clear
3:54 AM 30.7 °F 27.3 °F 19.4 °F 63% 30.30 in 10.0 mi WNW 3.5 mph - N/A   Clear
4:14 AM 30.2 °F 25.4 °F 19.4 °F 64% 30.30 in 10.0 mi NW 4.6 mph - N/A   Clear
4:34 AM 30.0 °F 24.1 °F 19.6 °F 65% 30.30 in 10.0 mi NW 5.8 mph - N/A   Clear
4:55 AM 29.7 °F 26.1 °F 19.9 °F 67% 30.31 in 10.0 mi WNW 3.5 mph - N/A   Clear
5:14 AM 29.3 °F 24.3 °F 19.9 °F 68% 30.31 in 10.0 mi WNW 4.6 mph - N/A   Clear
5:34 AM 29.1 °F 24.1 °F 20.1 °F 69% 30.31 in 10.0 mi WNW 4.6 mph - N/A   Clear
5:55 AM 29.1 °F 22.1 °F 20.1 °F 69% 30.31 in 10.0 mi NW 6.9 mph - N/A   Clear
6:14 AM 28.9 °F 22.8 °F 20.1 °F 70% 30.32 in 10.0 mi WNW 5.8 mph - N/A   Clear
6:55 AM 28.2 °F 22.0 °F 20.1 °F 72% 30.32 in 10.0 mi NW 5.8 mph - N/A   Clear
7:14 AM 28.0 °F 24.2 °F 20.1 °F 72% 30.33 in 10.0 mi NW 3.5 mph - N/A   Clear
7:35 AM 27.9 °F 22.6 °F 20.1 °F 73% 30.34 in 10.0 mi NW 4.6 mph - N/A   Clear
7:55 AM 27.5 °F 23.6 °F 19.4 °F 72% 30.34 in 10.0 mi NW 3.5 mph - N/A   Clear
8:14 AM 27.5 °F - 19.4 °F 72% 30.35 in 10.0 mi Calm Calm - N/A   Clear
8:35 AM 28.2 °F 23.1 °F 19.0 °F 68% 30.35 in 10.0 mi NW 4.6 mph - N/A   Clear
8:55 AM 28.6 °F 23.5 °F 18.5 °F 66% 30.36 in 10.0 mi NNW 4.6 mph - N/A   Clear
9:14 AM 29.3 °F 23.2 °F 18.3 °F 64% 30.36 in 10.0 mi NNW 5.8 mph - N/A   Clear
9:35 AM 30.2 °F 25.4 °F 18.5 °F 62% 30.36 in 10.0 mi WNW 4.6 mph - N/A   Clear
10:35 AM 33.6 °F 29.4 °F 19.2 °F 56% 30.37 in 10.0 mi NW 4.6 mph - N/A   Clear
10:54 AM 33.3 °F - 18.5 °F 55% 30.37 in 10.0 mi Calm Calm - N/A   Clear
11:15 AM 34.2 °F - 17.8 °F 51% 30.37 in 10.0 mi Calm Calm - N/A   Clear
11:35 AM 35.4 °F - 16.3 °F 46% 30.36 in 10.0 mi Calm Calm - N/A   Clear
11:54 AM 35.4 °F - 16.7 °F 47% 30.35 in 10.0 mi Calm Calm - N/A   Clear
12:15 PM 36.7 °F 34.1 °F 14.9 °F 41% 30.35 in 10.0 mi WSW 3.5 mph - N/A   Clear
12:34 PM 36.1 °F - 15.4 °F 43% 30.35 in 10.0 mi Calm Calm - N/A   Clear
12:55 PM 37.0 °F 32.4 °F 15.1 °F 41% 30.34 in 10.0 mi SW 5.8 mph - N/A   Clear
1:15 PM 37.2 °F 32.6 °F 14.7 °F 40% 30.32 in 10.0 mi NNW 5.8 mph - N/A   Clear
1:34 PM 37.9 °F - 14.7 °F 39% 30.32 in 10.0 mi Calm Calm - N/A   Clear
1:55 PM 37.9 °F - 15.3 °F 40% 30.31 in 10.0 mi Calm Calm - N/A   Clear
2:14 PM 38.7 °F 35.2 °F 14.9 °F 38% 30.30 in 10.0 mi SW 4.6 mph - N/A   Clear
2:35 PM 38.7 °F 35.2 °F 15.4 °F 39% 30.30 in 10.0 mi SW 4.6 mph - N/A   Clear
2:55 PM 38.8 °F 35.4 °F 14.9 °F 38% 30.29 in 10.0 mi WNW 4.6 mph - N/A   Clear
3:14 PM 38.8 °F 33.8 °F 15.8 °F 39% 30.29 in 10.0 mi West 6.9 mph - N/A   Clear
3:35 PM 38.7 °F 32.9 °F 15.6 °F 39% 30.29 in 10.0 mi West 8.1 mph - N/A   Clear
3:55 PM 38.5 °F 35.0 °F 16.0 °F 40% 30.29 in 10.0 mi West 4.6 mph - N/A   Clear
4:14 PM 37.9 °F 34.4 °F 16.3 °F 42% 30.29 in 10.0 mi West 4.6 mph - N/A   Clear
4:35 PM 37.4 °F 33.8 °F 16.3 °F 42% 30.29 in 10.0 mi West 4.6 mph - N/A   Clear
4:54 PM 36.9 °F 33.1 °F 16.7 °F 44% 30.28 in 10.0 mi West 4.6 mph - N/A   Clear
5:14 PM 36.3 °F - 16.9 °F 45% 30.27 in 10.0 mi Calm Calm - N/A   Clear
5:34 PM 35.8 °F - 17.1 °F 47% 30.27 in 10.0 mi Calm Calm - N/A   Clear
5:55 PM 35.1 °F - 17.2 °F 48% 30.27 in 10.0 mi Calm Calm - N/A   Clear
6:14 PM 35.1 °F 32.2 °F 17.4 °F 49% 30.28 in 10.0 mi SW 3.5 mph - N/A   Clear
6:55 PM 34.3 °F 31.4 °F 17.6 °F 50% 30.29 in 10.0 mi SW 3.5 mph - N/A   Clear
7:14 PM 34.2 °F 31.2 °F 17.8 °F 51% 30.29 in 10.0 mi SW 3.5 mph - N/A   Clear
7:35 PM 33.4 °F 29.1 °F 18.0 °F 53% 30.29 in 10.0 mi SW 4.6 mph - N/A   Clear
7:54 PM 33.3 °F 28.9 °F 18.0 °F 53% 30.29 in 10.0 mi SW 4.6 mph - N/A   Clear
8:15 PM 32.9 °F 28.5 °F 18.0 °F 54% 30.28 in 10.0 mi SSW 4.6 mph - N/A   Clear
8:35 PM 32.9 °F 28.5 °F 18.0 °F 54% 30.28 in 10.0 mi SW 4.6 mph - N/A   Clear
8:54 PM 32.9 °F 29.8 °F 18.0 °F 54% 30.28 in 10.0 mi SSW 3.5 mph - N/A   Clear
9:15 PM 32.2 °F 26.7 °F 18.1 °F 56% 30.28 in 10.0 mi SSW 5.8 mph - N/A   Clear
9:34 PM 32.0 °F 27.5 °F 18.0 °F 56% 30.27 in 10.0 mi SSW 4.6 mph - N/A   Clear
9:55 PM 32.0 °F 28.7 °F 18.1 °F 57% 30.27 in 10.0 mi SSW 3.5 mph - N/A   Clear
10:14 PM 31.6 °F 27.0 °F 18.0 °F 57% 30.27 in 10.0 mi SW 4.6 mph - N/A   Clear
10:35 PM 31.1 °F 27.7 °F 18.0 °F 58% 30.27 in 10.0 mi SW 3.5 mph - N/A   Clear
10:55 PM 31.1 °F 26.4 °F 17.8 °F 58% 30.27 in 10.0 mi SW 4.6 mph - N/A   Clear
11:14 PM 31.1 °F 27.7 °F 18.0 °F 58% 30.27 in 10.0 mi WSW 3.5 mph - N/A   Scattered Clouds
11:54 PM 30.7 °F 24.9 °F 18.0 °F 59% 30.26 in 10.0 mi SW 5.8 mph - N/A   Clear